Total_Precipitation_Accumulation
0.36 0.37 0.35 0.32 0.33 0.35 0.40 0.47 0.55 0.52 0.43 0.36 0.36 0.38 0.40 0.42 0.47 0.46 0.44 0.51 0.52 0.51 0.53 0.54 0.52 0.49 0.45 0.45 0.47 0.49 0.50 0.48 0.45 0.42 0.40 0.38 0.38 0.38
0.27 0.29 0.29 0.28 0.30 0.32 0.37 0.42 0.48 0.55 0.52 0.39 0.35 0.37 0.40 0.42 0.45 0.41 0.38 0.44 0.44 0.43 0.44 0.43 0.41 0.38 0.35 0.34 0.36 0.38 0.38 0.40 0.40 0.41 0.43 0.45 0.45 0.45
0.19 0.21 0.23 0.23 0.25 0.27 0.31 0.36 0.42 0.47 0.52 0.46 0.41 0.42 0.43 0.40 0.39 0.35 0.31 0.30 0.28 0.31 0.31 0.30 0.29 0.27 0.26 0.25 0.25 0.26 0.27 0.30 0.32 0.36 0.39 0.43 0.44 0.43
0.17 0.19 0.21 0.23 0.26 0.28 0.31 0.34 0.37 0.39 0.41 0.40 0.36 0.33 0.32 0.29 0.25 0.21 0.17 0.15 0.13 0.17 0.18 0.18 0.18 0.17 0.16 0.17 0.18 0.21 0.23 0.26 0.28 0.29 0.31 0.33 0.35 0.37
0.17 0.19 0.21 0.23 0.27 0.28 0.29 0.31 0.32 0.31 0.31 0.31 0.27 0.23 0.20 0.18 0.15 0.12 0.09 0.07 0.06 0.06 0.07 0.08 0.09 0.11 0.13 0.14 0.15 0.15 0.15 0.15 0.15 0.16 0.18 0.21 0.23 0.25
0.19 0.21 0.24 0.26 0.27 0.28 0.29 0.30 0.28 0.25 0.23 0.23 0.23 0.21 0.18 0.13 0.10 0.07 0.05 0.04 0.03 0.03 0.03 0.04 0.05 0.06 0.05 0.05 0.05 0.06 0.06 0.07 0.10 0.13 0.16 0.18 0.19 0.21
0.27 0.29 0.30 0.32 0.31 0.28 0.25 0.22 0.19 0.18 0.21 0.26 0.26 0.19 0.12 0.08 0.06 0.04 0.04 0.03 0.02 0.02 0.02 0.01 0.01 0.01 0.01 0.01 0.02 0.03 0.05 0.09 0.12 0.14 0.18 0.20 0.21 0.22
0.30 0.30 0.29 0.28 0.25 0.23 0.20 0.18 0.19 0.23 0.30 0.32 0.23 0.12 0.06 0.04 0.04 0.05 0.07 0.09 0.06 0.01 0.01 0.01 0.00 0.00 0.00 0.01 0.02 0.03 0.05 0.07 0.08 0.10 0.12 0.14 0.16 0.17
0.29 0.26 0.23 0.20 0.18 0.14 0.12 0.13 0.15 0.19 0.20 0.14 0.07 0.03 0.03 0.04 0.08 0.13 0.12 0.12 0.08 0.01 0.02 0.02 0.00 0.01 0.01 0.01 0.01 0.01 0.02 0.03 0.05 0.08 0.10 0.12 0.14 0.15
0.21 0.16 0.13 0.10 0.08 0.08 0.09 0.14 0.11 0.08 0.04 0.02 0.02 0.02 0.03 0.04 0.08 0.14 0.14 0.10 0.03 0.01 0.01 0.02 0.00 0.00 0.00 0.00 0.00 0.00 0.02 0.05 0.09 0.12 0.14 0.15 0.16 0.16
0.10 0.07 0.06 0.05 0.06 0.10 0.15 0.17 0.07 0.01 0.01 0.02 0.03 0.03 0.03 0.02 0.03 0.10 0.15 0.15 0.09 0.01 0.00 0.00 0.00 0.00 0.00 0.00 0.00 0.00 0.02 0.03 0.04 0.06 0.07 0.09 0.10 0.13
0.03 0.02 0.02 0.03 0.06 0.12 0.13 0.09 0.02 0.01 0.02 0.01 0.00 0.00 0.00 0.00 0.01 0.07 0.20 0.35 0.26 0.12 0.00 0.04 0.06 0.08 0.15 0.02 0.00 0.00 0.01 0.01 0.02 0.03 0.04 0.06 0.09 0.12
0.01 0.01 0.01 0.04 0.10 0.12 0.07 0.02 0.02 0.05 0.03 0.00 0.00 0.00 0.00 0.00 0.00 0.01 0.08 0.35 0.51 0.29 0.04 0.22 0.33 0.15 0.24 0.11 0.00 0.00 0.00 0.00 0.02 0.03 0.06 0.09 0.14 0.25
0.01 0.01 0.02 0.07 0.08 0.04 0.01 0.01 0.03 0.03 0.00 0.00 0.00 0.00 0.01 0.01 0.00 0.01 0.02 0.06 0.21 0.30 0.15 0.34 0.60 0.36 0.40 0.26 0.04 0.00 0.00 0.01 0.05 0.11 0.16 0.20 0.24 0.29
0.02 0.04 0.05 0.04 0.01 0.00 0.00 0.01 0.01 0.00 0.01 0.03 0.02 0.01 0.01 0.01 0.01 0.02 0.01 0.01 0.02 0.03 0.06 0.13 0.35 0.39 0.48 0.43 0.20 0.05 0.04 0.03 0.06 0.16 0.21 0.23 0.26 0.32
0.03 0.03 0.02 0.00 0.00 0.00 0.00 0.00 0.00 0.00 0.04 0.06 0.04 0.02 0.01 0.01 0.02 0.03 0.05 0.05 0.06 0.01 0.00 0.02 0.10 0.31 0.40 0.24 0.26 0.19 0.14 0.19 0.15 0.23 0.27 0.26 0.30 0.39
0.03 0.01 0.00 0.00 0.00 0.00 0.00 0.00 0.00 0.01 0.02 0.03 0.05 0.05 0.03 0.02 0.02 0.02 0.07 0.11 0.13 0.08 0.03 0.01 0.01 0.06 0.14 0.18 0.22 0.14 0.13 0.21 0.31 0.40 0.45 0.44 0.38 0.45
0.01 0.00 0.00 0.00 0.00 0.00 0.01 0.01 0.01 0.01 0.03 0.05 0.06 0.08 0.09 0.08 0.06 0.03 0.06 0.13 0.15 0.10 0.07 0.05 0.06 0.09 0.06 0.03 0.12 0.23 0.25 0.33 0.41 0.47 0.58 0.68 0.55 0.46
0.00 0.00 0.00 0.00 0.01 0.01 0.02 0.03 0.03 0.01 0.03 0.06 0.09 0.12 0.14 0.12 0.09 0.08 0.08 0.11 0.11 0.08 0.08 0.09 0.16 0.37 0.38 0.16 0.05 0.22 0.47 0.52 0.48 0.50 0.59 0.76 0.91 0.74
0.00 0.00 0.01 0.01 0.01 0.03 0.04 0.05 0.04 0.03 0.04 0.06 0.09 0.12 0.17 0.18 0.14 0.12 0.12 0.16 0.19 0.14 0.08 0.06 0.14 0.41 0.71 0.58 0.36 0.25 0.33 0.55 0.74 0.81 0.66 0.54 0.58 0.56
0.00 0.00 0.01 0.01 0.03 0.05 0.05 0.06 0.06 0.07 0.07 0.11 0.12 0.15 0.19 0.24 0.18 0.13 0.14 0.13 0.17 0.18 0.15 0.10 0.12 0.21 0.39 0.49 0.38 0.21 0.24 0.33 0.59 0.94 0.90 0.69 0.49 0.40
0.00 0.01 0.01 0.02 0.04 0.06 0.07 0.07 0.07 0.07 0.08 0.11 0.13 0.15 0.18 0.24 0.24 0.19 0.17 0.19 0.18 0.19 0.18 0.09 0.05 0.10 0.23 0.41 0.34 0.18 0.15 0.13 0.14 0.22 0.54 0.98 1.40 1.50
0.01 0.02 0.02 0.04 0.06 0.07 0.08 0.07 0.07 0.07 0.10 0.16 0.17 0.17 0.19 0.21 0.19 0.20 0.21 0.23 0.25 0.20 0.15 0.10 0.05 0.07 0.13 0.21 0.26 0.19 0.11 0.08 0.07 0.12 0.30 0.50 0.79 1.06